Location: Unspecified
(35.7250°N, 0.0000°E)
Time: 21:04:47
(UTC+00:00)

Tiros 1 - Pass Details

Date: 04 July 2019
Orbit: 630 x 664 km, 48.4° (Epoch: 21 August)

Event Time Altitude Azimuth Distance (km) Brightness Sun altitude
Rises 01:12:39 0° 304° (NW) 2,944 10.7 -29.2°
Reaches altitude 10° 01:14:59 10° 303° (WNW) 2,027 9.8 -29.0°
Enters shadow 01:15:19 12° 302° (WNW) 1,902 9.7 -29.0°
